Regional Weather Roundup
Issued by NWS Albany, NY

Home | Current Version | Previous Version | Text Only | Print | Product List | Glossary On
Versions: 1 2 3 4 5 6 7 8 9 10 11 12 13 14 15 16 17 18 19 20 21 22 23 24 25 26 27 28 29 30 31 32 33 34 35 36 37 38 39 40 41 42 43 44 45 46 47 48 49 50
000
ASUS41 KALY 261210
RWRALY

NEW YORK STATE HOURLY WEATHER ROUNDUP
NATIONAL WEATHER SERVICE ALBANY NY
800 AM EDT SUN APR 26 2015

NOTE: "FAIR" INDICATES FEW OR NO CLOUDS BELOW 12,000 FEET WITH NO
SIGNIFICANT WEATHER AND/OR NO OBSTRUCTIONS TO VISIBILITY.

NYZ032-033-038>043-046>054-057>066-NYZ062>081-261300-
EAST


CITY           SKY/WX    TMP DP  RH WIND       PRES   REMARKS
ALBANY         CLOUDY    43  29  57 NW3       29.74S
GLENS FALLS    CLOUDY    46  30  53 N7        29.72S
POUGHKEEPSIE   SUNNY     40  32  73 CALM      29.72F
NEWBURGH       SUNNY     34  34 100 CALM      29.72F
MONTGOMERY     SUNNY     38  32  79 CALM      29.71F
WHITE PLAINS   SUNNY     47  28  47 NE6       29.69S
ISLIP          MOSUNNY   48  34  58 NE6       29.68S
NEW YORK CITY  PTSUNNY   48  31  51 NE13      29.70R
CENTRAL PARK   MOSUNNY   49  28  44 NE8       29.73R
$$

NYZ005>009-017-018-044>046-055-056-261300-
CENTRAL


CITY           SKY/WX    TMP DP  RH WIND       PRES   REMARKS
FULTON         SUNNY     41  31  67 N8        29.79R
SYRACUSE       PTSUNNY   41  31  67 W6        29.78R
ROME           CLOUDY    37  32  82 CALM      29.78S
ELMIRA         CLOUDY    34  29  82 SW5       29.77S WCI  30
BINGHAMTON     SUNNY     36  26  67 N6        29.73R WCI  31
MONTICELLO     CLOUDY    36  28  75 NW3       29.72S
$$

NYZ026>034-041>043-261300-
NORTH


CITY           SKY/WX    TMP DP  RH WIND       PRES   REMARKS
WATERTOWN      SUNNY     40  32  73 NE6       29.79S
FORT DRUM      NOT AVBL
MASSENA        MOSUNNY   41  31  67 NW6       29.78S
SARANAC LAKE   CLOUDY    35  30  82 SW3       29.69F
PLATTSBURGH    PTSUNNY   45  31  58 SW5       29.72S
$$

NYZ001>004-010>016-019>021-261300-
WEST


CITY           SKY/WX    TMP DP  RH WIND       PRES   REMARKS
NIAGARA FALLS  PTSUNNY   39  31  72 N6        29.83R WCI  35
BUFFALO        PTSUNNY   37  30  75 N5        29.82R WCI  33
DUNKIRK        PTSUNNY   35  31  85 CALM      29.83R
JAMESTOWN      SUNNY     37  23  56 CALM      29.79R
WELLSVILLE     MOSUNNY   35  26  69 NW5       29.76S WCI  31
ROCHESTER      PTSUNNY   38  33  82 SW3       29.81R
PENN YAN       CLOUDY    38  29  70 NW3       29.78R
$$

             KEY
       WCI = WIND CHILL INDEX
       VSB = VISIBILITY
       HX  = HEAT INDEX
$$


USA.gov is the U.S. government's official web portal to all federal, state and local government web resources and services.